Regional Weather Roundup
Issued by NWS

Home | Current Version | Previous Version | Text Only | Print | Product List | Glossary On
Versions: 1 2 3 4 5 6 7 8 9 10 11 12 13 14 15 16 17 18 19 20 21 22 23 24 25 26 27 28 29 30 31 32 33 34 35 36 37 38 39 40 41 42 43 44 45 46 47 48 49 50
976
ASUS43 KMKX 292221
RWRWI

WISCONSIN REGIONAL WEATHER ROUNDUP
NATIONAL WEATHER SERVICE MILWAUKEE/SULLIVAN WI
500 PM CDT WED MAR 29 2017

NOTE: "FAIR" INDICATES FEW OR NO CLOUDS BELOW 12,000 FEET WITH NO
SIGNIFICANT WEATHER AND/OR OBSTRUCTIONS TO VISIBILITY.

WIZ001-002-006>008-014>016-023>028-292300-
NORTHWEST WISCONSIN

CITY           SKY/WX    TMP DP  RH WIND       PRES   REMARKS
SUPERIOR ARPT  CLOUDY    35  32  89 E15G23    30.26F WCI  25
ASHLAND        CLOUDY    37  31  78 NE9       30.25F WCI  30
HAYWARD        CLOUDY    52  28  39 E6        30.19F
SIREN          CLOUDY    52  29  42 CALM      30.18F
CUMBERLAND     CLOUDY    46  32  57 S6        30.19S
RICE LAKE      CLOUDY    48  32  53 CALM      30.20F
CHETEK         CLOUDY    47  34  58 E7        30.19F
LADYSMITH      CLOUDY    49  32  51 E7        30.21F
EAU CLAIRE     CLOUDY    49  33  54 E7        30.18F
MENOMONIE      CLOUDY    49  34  55 E6        30.19F
NEW RICHMOND   CLOUDY    48  32  54 SE5       30.18F
OSCEOLA        CLOUDY    49  34  56 SE8       30.21F
$$

WIZ003>005-009-010-017-018-292300-
NORTH CENTRAL WISCONSIN

CITY           SKY/WX    TMP DP  RH WIND       PRES   REMARKS
MANITOWISH WTR CLOUDY    46  29  51 SE5       30.21F
ARBOR VITAE    CLOUDY    47  30  52 E6        30.21F
WOODRUFF       CLOUDY    47  30  52 E6        30.21F
RHINELANDER    CLOUDY    47  29  49 E8        30.22F
EAGLE RIVER    CLOUDY    46  27  47 E8        30.22F
LAND O LAKES   CLOUDY    46  28  49 E3        30.24F
PHILLIPS       CLOUDY    47  30  51 E8        30.20F
TOMAHAWK       CLOUDY    45  30  54 CALM      30.21F
MEDFORD        CLOUDY    44  30  58 E9        30.20S
MERRILL        CLOUDY    45  30  55 E9        30.22F
$$

WIZ029-030-035-036-043>047-292300-
CENTRAL WISCONSIN

CITY           SKY/WX    TMP DP  RH WIND       PRES   REMARKS
WAUSAU         CLOUDY    45  29  53 E10       30.21F
MOSINEE        NOT AVBL
MARSHFIELD     CLOUDY    44  31  60 SE9       30.20F
STEVENS POINT  CLOUDY    42  29  60 E12       30.21F
WAUPACA        CLOUDY    46  32  59 NE7       30.23F
WAUTOMA        CLOUDY    44  34  67 NE15      30.20F
WISC RAPIDS    CLOUDY    45  32  60 E8        30.22F
CAMP DOUGLAS   CLOUDY    43  39  87 NE12      30.16F
$$

WIZ011>013-019>022-031-037>040-048>050-292300-
NORTHEAST WISCONSIN

CITY           SKY/WX    TMP DP  RH WIND       PRES   REMARKS
ANTIGO         CLOUDY    42  31  65 E8        30.22F
SHAWANO        CLOUDY    44  33  64 E9        30.26F
OCONTO         CLOUDY    39  28  63 NE8       30.27F WCI  34
STURGEON BAY   CLOUDY    39  28  64 NE9       30.25F WCI  33
GREEN BAY      CLOUDY    40  33  76 NE14      30.25F WCI  32
MANITOWOC      PTSUNNY   38  33  82 NE8       30.25F WCI  32
APPLETON       CLOUDY    43  28  56 NE15      30.21F
CLINTONVILLE   CLOUDY    43  28  56 E12G20    30.24F
OSHKOSH        CLOUDY    42  31  64 NE10      30.20F
$$

WIZ032>034-041-042-053>061-292300-
SOUTHWEST WISCONSIN

CITY           SKY/WX    TMP DP  RH WIND       PRES   REMARKS
LA CROSSE      CLOUDY    47  37  68 E10       30.18S
SPARTA         CLOUDY    44  40  85 E3        30.19S
VIROQUA        CLOUDY    44  36  74 NE12      30.16R
BOSCOBEL       LGT RAIN  47  38  71 VRB5      30.15R
PRAIRIE DU CHI RAIN      44  37  78 NE10      30.12F
PLATTEVILLE    CLOUDY    45  38  78 NE15      30.09R
$$

WIZ056-057-062-063-064-067-068-292300-
SOUTH CENTRAL WISCONSIN

CITY           SKY/WX    TMP DP  RH WIND       PRES   REMARKS
REEDSBURG      CLOUDY    45  40  83 NE12      30.14F
BARABOO/DELLS  CLOUDY    44  38  79 NE12      30.14F
LONE ROCK      CLOUDY    48  35  60 E9        30.15R
MINERAL POINT  LGT RAIN  46  37  71 NE12      30.12R
MADISON        CLOUDY    46  32  58 E13       30.13F
MIDDLETON      CLOUDY    47  33  57 E16G23    30.13F
WATERTOWN      CLOUDY    45  34  66 E14G21    30.13F
MONROE         DRIZZLE   45  32  61 NE12G17   30.10R
JANESVILLE     CLOUDY    46  34  61 E17G24    30.10F
$$

WIZ051-052-058>065-066-070>072-292300-
SOUTHEAST WISCONSIN

CITY           SKY/WX    TMP DP  RH WIND       PRES   REMARKS
MILWAUKEE      CLOUDY    39  35  86 NE17G24   30.16F WCI  30
WAUKESHA       CLOUDY    39  32  75 NE12G18   30.17F WCI  32
MILWAUKEE/TIMM CLOUDY    39  32  75 E9        30.21F WCI  33
RACINE         CLOUDY    40  34  79 NE14      30.17F WCI  32
KENOSHA        CLOUDY    44  32  62 NE14      30.14F
FOND DU LAC    CLOUDY    45  27  49 E12       30.20F
SHEBOYGAN      CLOUDY    37  32  82 NE18      30.21F WCI  27
WEST BEND      CLOUDY    41  34  75 NE9       30.19F
JUNEAU         CLOUDY    43  34  70 NE15G22   30.16F
$$

LSZ147-162-292300-
LAKE SUPERIOR

STATION/POSITION TIME  TEMP    WIND        PRES    WAVE
                       AIR SEA DIR/SP/G            HT/PER
                 (UTC) (F)     (DEG/KT/KT) (MB)    (FT/S)
DEVILS ISLAND    2200   34      50/ 17/ 19 1026.0F
PORT WING        2130   35      30/ 20/ 23 1024.7S
SAXON HARBOR     2140   35     290/  4/  5 1023.7F
$$

LMZ867-665-643>646-292300-
LAKE MICHIGAN

STATION/POSITION TIME  TEMP    WIND        PRES    WAVE
                       AIR SEA DIR/SP/G            HT/PER
                 (UTC) (F)     (DEG/KT/KT) (MB)    (FT/S)
CHAMBERS ISLAND  2140   36      20/ 12/ 13 1025.1F
NORTHPORT PIER   2130   37      80/  1/  6 1026.4F
SISTER BAY       2051   41      40/  6/ 10   N/A
KEWAUNEE LAKESHO 2154   35      30/ 11/ 14 1024.6F
SHEBOYGAN LAKESH 2200   36      10/ 18/ 19 1023.7F
PORT WASHINGTON  2140   39      30/ 10/ 14 1024.0F
MILWAUKEE LAKESH 2200   37      20/ 17/ 19   N/A
KENOSHA   LAKESH 2200   38      30/ 14/ 18 1021.0
$$

TC  - TEMPERATURE IN CELSIUS
VSB - VISIBILITY IN STATUTE MILES
WCI - WIND CHILL INDEX
HX  - HEAT INDEX





USA.gov is the U.S. government's official web portal to all federal, state and local government web resources and services.